Time,TemperatureF,DewpointF,PressureIn,WindDirection,WindDirectionDegrees,WindSpeedMPH,WindSpeedGustMPH,Humidity,HourlyPrecipIn,Conditions,Clouds,dailyrainin,SoftwareType,DateUTC
2013-06-22 00:01:00,70.3,68.2,30.12,SE,137,0.0,0.0,93,0.00,CLR,OVC,0.00,WeatherDisplay:10.37,2013-06-22 04:01:00,
2013-06-22 00:06:00,70.2,68.1,30.12,East,81,0.0,0.0,93,0.00,CLR,OVC,0.00,WeatherDisplay:10.37,2013-06-22 04:06:00,
2013-06-22 00:11:00,70.2,68.1,30.12,East,81,0.0,0.0,93,0.00,CLR,OVC,0.00,WeatherDisplay:10.37,2013-06-22 04:11:00,
2013-06-22 00:16:00,70.2,68.1,30.12,East,81,0.0,0.0,93,0.00,CLR,OVC,0.00,WeatherDisplay:10.37,2013-06-22 04:16:00,
2013-06-22 00:21:00,70.1,68.0,30.12,East,81,0.0,0.0,93,0.00,CLR,OVC,0.00,WeatherDisplay:10.37,2013-06-22 04:21:00,
2013-06-22 00:26:00,70.1,68.0,30.12,East,81,0.0,0.0,93,0.00,CLR,OVC,0.00,WeatherDisplay:10.37,2013-06-22 04:26:00,
2013-06-22 00:31:00,70.0,67.9,30.12,East,81,0.0,0.0,93,0.00,CLR,OVC,0.00,WeatherDisplay:10.37,2013-06-22 04:31:00,
2013-06-22 00:36:00,69.9,67.8,30.12,East,81,0.0,0.0,93,0.00,CLR,OVC,0.00,WeatherDisplay:10.37,2013-06-22 04:36:00,
2013-06-22 00:41:00,69.7,67.6,30.12,East,80,0.0,0.0,93,0.00,CLR,OVC,0.00,WeatherDisplay:10.37,2013-06-22 04:41:00,
2013-06-22 00:46:00,69.9,67.8,30.12,ESE,121,2.3,2.3,93,0.00,CLR,OVC,0.00,WeatherDisplay:10.37,2013-06-22 04:46:00,
2013-06-22 00:51:00,69.7,67.6,30.11,SE,134,1.1,1.1,93,0.00,CLR,OVC,0.00,WeatherDisplay:10.37,2013-06-22 04:51:00,
2013-06-22 00:56:00,69.7,67.6,30.11,SE,134,1.1,1.1,93,0.00,CLR,OVC,0.00,WeatherDisplay:10.37,2013-06-22 04:56:00,
2013-06-22 01:01:00,69.7,67.6,30.11,SE,133,0.0,0.0,93,0.00,CLR,OVC,0.00,WeatherDisplay:10.37,2013-06-22 05:01:00,
2013-06-22 01:06:00,69.6,67.5,30.11,SE,133,0.0,0.0,93,0.00,CLR,OVC,0.00,WeatherDisplay:10.37,2013-06-22 05:06:00,
2013-06-22 01:11:00,69.6,67.5,30.11,SE,134,0.0,0.0,93,0.00,CLR,OVC,0.00,WeatherDisplay:10.37,2013-06-22 05:11:00,
2013-06-22 01:16:00,69.5,67.4,30.10,SE,133,0.0,0.0,93,0.00,CLR,OVC,0.00,WeatherDisplay:10.37,2013-06-22 05:16:00,
2013-06-22 01:21:00,69.6,67.5,30.11,SE,133,1.1,0.0,93,0.00,CLR,OVC,0.00,WeatherDisplay:10.37,2013-06-22 05:21:00,
2013-06-22 01:26:00,69.4,67.3,30.11,SE,133,1.1,0.0,93,0.00,CLR,OVC,0.00,WeatherDisplay:10.37,2013-06-22 05:26:00,
2013-06-22 01:31:00,69.2,67.1,30.10,SE,134,0.0,0.0,93,0.00,CLR,OVC,0.00,WeatherDisplay:10.37,2013-06-22 05:31:00,
2013-06-22 01:36:00,69.2,67.1,30.10,SE,134,0.0,0.0,93,0.00,CLR,OVC,0.00,WeatherDisplay:10.37,2013-06-22 05:36:00,
2013-06-22 01:41:00,69.2,67.1,30.10,SE,134,0.0,0.0,93,0.00,CLR,OVC,0.00,WeatherDisplay:10.37,2013-06-22 05:41:00,
2013-06-22 01:46:00,69.3,67.2,30.10,SE,133,0.0,0.0,93,0.00,CLR,OVC,0.00,WeatherDisplay:10.37,2013-06-22 05:46:00,
2013-06-22 01:51:00,69.3,67.2,30.10,SE,134,0.0,0.0,93,0.00,CLR,OVC,0.00,WeatherDisplay:10.37,2013-06-22 05:51:00,
2013-06-22 01:56:00,69.3,67.2,30.10,SE,134,0.0,0.0,93,0.00,CLR,OVC,0.00,WeatherDisplay:10.37,2013-06-22 05:56:00,
2013-06-22 02:01:00,69.3,67.2,30.10,SE,134,0.0,0.0,93,0.00,CLR,OVC,0.00,WeatherDisplay:10.37,2013-06-22 06:01:00,
2013-06-22 02:06:00,69.3,67.2,30.10,SE,133,0.0,0.0,93,0.00,CLR,OVC,0.00,WeatherDisplay:10.37,2013-06-22 06:06:00,
2013-06-22 02:11:00,69.3,67.2,30.10,SE,134,0.0,0.0,93,0.00,CLR,OVC,0.00,WeatherDisplay:10.37,2013-06-22 06:11:00,
2013-06-22 02:16:00,69.3,67.2,30.10,SE,134,0.0,0.0,93,0.00,CLR,OVC,0.00,WeatherDisplay:10.37,2013-06-22 06:16:00,
2013-06-22 02:21:00,69.4,67.3,30.10,SE,133,0.0,0.0,93,0.00,CLR,OVC,0.00,WeatherDisplay:10.37,2013-06-22 06:21:00,
2013-06-22 02:26:00,69.4,67.3,30.10,SE,134,0.0,0.0,93,0.00,CLR,OVC,0.00,WeatherDisplay:10.37,2013-06-22 06:26:00,
2013-06-22 02:31:00,69.4,67.3,30.10,SE,134,0.0,0.0,93,0.00,CLR,OVC,0.00,WeatherDisplay:10.37,2013-06-22 06:31:00,
2013-06-22 02:36:00,69.4,67.3,30.10,SE,134,0.0,0.0,93,0.00,CLR,OVC,0.00,WeatherDisplay:10.37,2013-06-22 06:36:00,
2013-06-22 02:41:00,69.5,67.4,30.10,SE,133,0.0,0.0,93,0.00,CLR,OVC,0.00,WeatherDisplay:10.37,2013-06-22 06:41:00,
2013-06-22 02:46:00,69.5,67.4,30.10,SE,134,0.0,0.0,93,0.00,CLR,OVC,0.00,WeatherDisplay:10.37,2013-06-22 06:46:00,
2013-06-22 02:51:00,69.5,67.4,30.10,SE,134,0.0,0.0,93,0.00,CLR,OVC,0.00,WeatherDisplay:10.37,2013-06-22 06:51:00,
2013-06-22 02:56:00,69.5,67.4,30.09,SE,134,0.0,0.0,93,0.00,CLR,OVC,0.00,WeatherDisplay:10.37,2013-06-22 06:56:00,
2013-06-22 03:01:00,69.6,67.5,30.10,ENE,60,1.1,1.1,93,0.00,FEW,OVC,0.00,WeatherDisplay:10.37,2013-06-22 07:01:00,
2013-06-22 03:06:00,69.6,67.5,30.09,ENE,59,0.0,0.0,93,0.00,FEW,OVC,0.00,WeatherDisplay:10.37,2013-06-22 07:06:00,
2013-06-22 03:11:00,69.5,67.4,30.09,ENE,59,0.0,0.0,93,0.00,FEW,OVC,0.00,WeatherDisplay:10.37,2013-06-22 07:11:00,
2013-06-22 03:16:00,69.4,67.3,30.09,ENE,60,0.0,0.0,93,0.00,FEW,OVC,0.00,WeatherDisplay:10.37,2013-06-22 07:16:00,
2013-06-22 03:21:00,69.3,67.2,30.09,ENE,61,0.0,0.0,93,0.00,FEW,OVC,0.00,WeatherDisplay:10.37,2013-06-22 07:21:00,
2013-06-22 03:26:00,69.3,67.2,30.09,ENE,61,0.0,0.0,93,0.00,FEW,OVC,0.00,WeatherDisplay:10.37,2013-06-22 07:26:00,
2013-06-22 03:31:00,69.2,67.1,30.09,ENE,60,0.0,0.0,93,0.00,BKN,OVC,0.00,WeatherDisplay:10.37,2013-06-22 07:31:00,
2013-06-22 03:36:00,69.1,67.0,30.09,ENE,59,0.0,0.0,93,0.00,BKN,OVC,0.00,WeatherDisplay:10.37,2013-06-22 07:36:00,
2013-06-22 03:41:00,69.0,66.9,30.09,ENE,60,0.0,0.0,93,0.00,BKN,OVC,0.00,WeatherDisplay:10.37,2013-06-22 07:41:00,
2013-06-22 03:46:00,68.9,66.8,30.09,ENE,59,0.0,0.0,93,0.00,BKN,OVC,0.00,WeatherDisplay:10.37,2013-06-22 07:46:00,
2013-06-22 03:51:00,68.9,66.8,30.09,ENE,61,0.0,0.0,93,0.00,BKN,OVC,0.00,WeatherDisplay:10.37,2013-06-22 07:51:00,
2013-06-22 03:56:00,68.9,66.8,30.09,ENE,60,0.0,0.0,93,0.00,BKN,OVC,0.00,WeatherDisplay:10.37,2013-06-22 07:56:00,
2013-06-22 04:01:00,69.0,66.9,30.09,ENE,59,1.1,0.0,93,0.00,BKN,OVC,0.00,WeatherDisplay:10.37,2013-06-22 08:01:00,
2013-06-22 04:06:00,69.1,67.0,30.09,ENE,60,0.0,0.0,93,0.00,BKN,OVC,0.00,WeatherDisplay:10.37,2013-06-22 08:06:00,
2013-06-22 04:11:00,69.1,67.0,30.09,ENE,59,0.0,0.0,93,0.00,BKN,OVC,0.00,WeatherDisplay:10.37,2013-06-22 08:11:00,
2013-06-22 04:16:00,69.1,67.0,30.09,ENE,60,0.0,0.0,93,0.00,BKN,OVC,0.00,WeatherDisplay:10.37,2013-06-22 08:16:00,
2013-06-22 04:21:00,69.1,67.0,30.09,ENE,59,0.0,0.0,93,0.00,BKN,OVC,0.00,WeatherDisplay:10.37,2013-06-22 08:21:00,
2013-06-22 04:26:00,69.0,66.9,30.09,ENE,60,0.0,0.0,93,0.00,BKN,OVC,0.00,WeatherDisplay:10.37,2013-06-22 08:26:00,
2013-06-22 04:31:00,69.0,66.9,30.09,ENE,59,0.0,0.0,93,0.00,BKN,OVC,0.00,WeatherDisplay:10.37,2013-06-22 08:31:00,
2013-06-22 04:36:00,68.9,66.8,30.09,ENE,60,0.0,0.0,93,0.00,BKN,OVC,0.00,WeatherDisplay:10.37,2013-06-22 08:36:00,
2013-06-22 04:41:00,68.9,66.8,30.09,ENE,61,0.0,0.0,93,0.00,BKN,OVC,0.00,WeatherDisplay:10.37,2013-06-22 08:41:00,
2013-06-22 04:46:00,68.9,66.8,30.09,ENE,61,0.0,0.0,93,0.00,BKN,OVC,0.00,WeatherDisplay:10.37,2013-06-22 08:46:00,
2013-06-22 04:51:00,68.8,66.7,30.09,ENE,60,0.0,0.0,93,0.00,BKN,OVC,0.00,WeatherDisplay:10.37,2013-06-22 08:51:00,
2013-06-22 04:56:00,68.8,67.0,30.09,ENE,61,0.0,0.0,94,0.00,BKN,OVC,0.00,WeatherDisplay:10.37,2013-06-22 08:56:00,
2013-06-22 05:01:00,68.7,66.6,30.09,ENE,61,0.0,0.0,93,0.00,CLR,OVC,0.00,WeatherDisplay:10.37,2013-06-22 09:01:00,
2013-06-22 05:06:00,68.7,66.6,30.09,ENE,61,0.0,0.0,93,0.00,CLR,OVC,0.00,WeatherDisplay:10.37,2013-06-22 09:06:00,
2013-06-22 05:11:00,68.7,66.6,30.10,ENE,61,0.0,0.0,93,0.00,CLR,OVC,0.00,WeatherDisplay:10.37,2013-06-22 09:11:00,
2013-06-22 05:16:00,68.8,67.0,30.10,ENE,60,1.1,0.0,94,0.00,CLR,OVC,0.00,WeatherDisplay:10.37,2013-06-22 09:16:00,
2013-06-22 05:21:00,68.9,67.1,30.10,ENE,60,0.0,0.0,94,0.00,CLR,OVC,0.00,WeatherDisplay:10.37,2013-06-22 09:21:00,
2013-06-22 05:26:00,69.0,67.2,30.09,ENE,61,0.0,0.0,94,0.00,CLR,OVC,0.00,WeatherDisplay:10.37,2013-06-22 09:26:00,
2013-06-22 05:31:00,69.0,67.2,30.09,ENE,61,0.0,0.0,94,0.00,CLR,OVC,0.00,WeatherDisplay:10.37,2013-06-22 09:31:00,
2013-06-22 05:36:00,69.0,67.2,30.09,ENE,61,0.0,0.0,94,0.00,CLR,OVC,0.00,WeatherDisplay:10.37,2013-06-22 09:36:00,
2013-06-22 05:41:00,69.0,67.2,30.09,ENE,61,0.0,0.0,94,0.00,CLR,OVC,0.00,WeatherDisplay:10.37,2013-06-22 09:41:00,
2013-06-22 05:46:00,68.9,67.1,30.09,ENE,61,0.0,0.0,94,0.00,CLR,OVC,0.00,WeatherDisplay:10.37,2013-06-22 09:46:00,
2013-06-22 05:51:00,68.9,67.1,30.10,ENE,61,0.0,0.0,94,0.00,CLR,OVC,0.00,WeatherDisplay:10.37,2013-06-22 09:51:00,
2013-06-22 05:56:00,68.9,67.1,30.10,ENE,61,0.0,0.0,94,0.00,CLR,OVC,0.00,WeatherDisplay:10.37,2013-06-22 09:56:00,
2013-06-22 06:01:00,68.8,67.0,30.10,ENE,61,0.0,0.0,94,0.00,CLR,OVC,0.00,WeatherDisplay:10.37,2013-06-22 10:01:00,
2013-06-22 06:06:00,68.7,66.9,30.10,ENE,61,0.0,0.0,94,0.00,CLR,OVC,0.00,WeatherDisplay:10.37,2013-06-22 10:06:00,
2013-06-22 06:11:00,68.8,67.0,30.10,ENE,61,0.0,0.0,94,0.00,CLR,OVC,0.00,WeatherDisplay:10.37,2013-06-22 10:11:00,
2013-06-22 06:16:00,68.8,67.0,30.10,ENE,61,0.0,0.0,94,0.00,CLR,OVC,0.00,WeatherDisplay:10.37,2013-06-22 10:16:00,
2013-06-22 06:21:00,68.8,67.0,30.10,ENE,61,0.0,0.0,94,0.00,CLR,OVC,0.00,WeatherDisplay:10.37,2013-06-22 10:21:00,
2013-06-22 06:26:00,68.8,67.0,30.09,ENE,68,0.0,0.0,94,0.00,CLR,OVC,0.00,WeatherDisplay:10.37,2013-06-22 10:26:00,
2013-06-22 06:31:00,68.7,66.9,30.10,East,92,0.0,0.0,94,0.00,CLR,OVC,0.00,WeatherDisplay:10.37,2013-06-22 10:31:00,
2013-06-22 06:36:00,68.7,66.9,30.10,East,99,0.0,0.0,94,0.00,CLR,OVC,0.00,WeatherDisplay:10.37,2013-06-22 10:36:00,
2013-06-22 06:39:00,68.7,66.9,30.10,East,99,0.0,0.0,94,0.00,CLR,OVC,0.00,WeatherDisplay:10.37,2013-06-22 10:39:00,
2013-06-22 06:41:00,68.7,66.9,30.10,East,99,0.0,0.0,94,0.00,CLR,OVC,0.00,WeatherDisplay:10.37,2013-06-22 10:41:00,
2013-06-22 06:46:00,68.7,66.9,30.10,East,99,0.0,0.0,94,0.00,CLR,OVC,0.00,WeatherDisplay:10.37,2013-06-22 10:46:00,
2013-06-22 06:52:00,68.6,66.8,30.10,WSW,249,0.0,0.0,94,0.00,CLR,OVC,0.00,WeatherDisplay:10.37,2013-06-22 10:52:00,
2013-06-22 06:57:00,68.7,66.9,30.10,WSW,247,0.0,0.0,94,0.00,CLR,OVC,0.00,WeatherDisplay:10.37,2013-06-22 10:57:00,
2013-06-22 07:02:00,68.7,66.9,30.10,WSW,247,0.0,0.0,94,0.00,CLR,OVC,0.00,WeatherDisplay:10.37,2013-06-22 11:02:00,
2013-06-22 07:07:00,68.8,67.0,30.10,WSW,244,0.0,0.0,94,0.00,CLR,OVC,0.00,WeatherDisplay:10.37,2013-06-22 11:07:00,
2013-06-22 07:12:00,69.0,67.2,30.10,SW,236,0.0,0.0,94,0.00,CLR,OVC,0.00,WeatherDisplay:10.37,2013-06-22 11:12:00,
2013-06-22 07:17:00,69.2,67.4,30.11,SW,236,0.0,0.0,94,0.00,CLR,OVC,0.00,WeatherDisplay:10.37,2013-06-22 11:17:00,
2013-06-22 07:22:00,69.4,67.6,30.11,WSW,237,0.0,0.0,94,0.00,CLR,OVC,0.00,WeatherDisplay:10.37,2013-06-22 11:22:00,
2013-06-22 07:27:00,69.6,67.8,30.11,SW,236,0.0,0.0,94,0.00,CLR,OVC,0.00,WeatherDisplay:10.37,2013-06-22 11:27:00,
2013-06-22 07:32:00,69.8,68.0,30.11,SW,236,0.0,0.0,94,0.00,CLR,OVC,0.00,WeatherDisplay:10.37,2013-06-22 11:32:00,
2013-06-22 07:37:00,69.9,68.1,30.11,SW,236,0.0,0.0,94,0.00,CLR,OVC,0.00,WeatherDisplay:10.37,2013-06-22 11:37:00,
2013-06-22 07:42:00,70.1,68.3,30.11,SW,224,1.1,1.1,94,0.00,CLR,OVC,0.00,WeatherDisplay:10.37,2013-06-22 11:42:00,
2013-06-22 07:47:00,70.5,68.7,30.11,SW,223,0.0,0.0,94,0.00,CLR,OVC,0.00,WeatherDisplay:10.37,2013-06-22 11:47:00,
2013-06-22 07:52:00,71.0,69.2,30.11,SW,224,0.0,0.0,94,0.00,CLR,OVC,0.00,WeatherDisplay:10.37,2013-06-22 11:52:00,
2013-06-22 07:57:00,71.7,69.9,30.11,ESE,121,1.1,1.1,94,0.00,CLR,OVC,0.00,WeatherDisplay:10.37,2013-06-22 11:57:00,
2013-06-22 08:02:00,72.2,70.4,30.11,SE,124,2.3,2.3,94,0.00,CLR,OVC,0.00,WeatherDisplay:10.37,2013-06-22 12:02:00,
2013-06-22 08:07:00,72.7,70.9,30.11,SE,124,1.1,1.1,94,0.00,CLR,OVC,0.00,WeatherDisplay:10.37,2013-06-22 12:07:00,
2013-06-22 08:12:00,73.1,71.3,30.11,SE,127,2.3,2.3,94,0.00,CLR,OVC,0.00,WeatherDisplay:10.37,2013-06-22 12:12:00,
2013-06-22 08:17:00,73.8,72.0,30.12,East,91,2.3,2.3,94,0.00,CLR,OVC,0.00,WeatherDisplay:10.37,2013-06-22 12:17:00,
2013-06-22 08:22:00,74.2,72.4,30.12,ESE,122,2.0,2.0,94,0.00,CLR,OVC,0.00,WeatherDisplay:10.37,2013-06-22 12:22:00,
2013-06-22 08:27:00,74.6,72.4,30.12,ENE,76,1.1,1.1,93,0.00,CLR,OVC,0.00,WeatherDisplay:10.37,2013-06-22 12:27:00,
2013-06-22 08:32:00,75.2,73.0,30.12,WSW,256,1.1,0.0,93,0.00,CLR,OVC,0.00,WeatherDisplay:10.37,2013-06-22 12:32:00,
2013-06-22 08:37:00,75.6,73.4,30.12,ESE,117,2.3,2.3,93,0.00,CLR,OVC,0.00,WeatherDisplay:10.37,2013-06-22 12:37:00,
2013-06-22 08:42:00,76.1,73.6,30.13,SE,137,3.4,3.4,92,0.00,CLR,OVC,0.00,WeatherDisplay:10.37,2013-06-22 12:42:00,
2013-06-22 08:47:00,76.6,74.1,30.13,SSE,152,1.1,1.1,92,0.00,CLR,OVC,0.00,WeatherDisplay:10.37,2013-06-22 12:47:00,
2013-06-22 08:52:00,77.1,74.3,30.13,ESE,107,1.1,1.1,91,0.00,CLR,OVC,0.00,WeatherDisplay:10.37,2013-06-22 12:52:00,
2013-06-22 08:57:00,77.4,74.6,30.13,ESE,109,1.1,1.1,91,0.00,CLR,OVC,0.00,WeatherDisplay:10.37,2013-06-22 12:57:00,
2013-06-22 09:02:00,77.6,74.4,30.14,ENE,68,1.1,0.0,90,0.00,FEW,OVC,0.00,WeatherDisplay:10.37,2013-06-22 13:02:00,
2013-06-22 09:07:00,77.7,74.5,30.14,NE,44,2.3,2.3,90,0.00,FEW,OVC,0.00,WeatherDisplay:10.37,2013-06-22 13:07:00,
2013-06-22 09:12:00,77.9,74.7,30.14,NE,54,1.1,1.1,90,0.00,FEW,OVC,0.00,WeatherDisplay:10.37,2013-06-22 13:12:00,
2013-06-22 09:17:00,78.4,74.9,30.14,ESE,110,2.3,2.3,89,0.00,FEW,OVC,0.00,WeatherDisplay:10.37,2013-06-22 13:17:00,
2013-06-22 09:22:00,79.3,75.8,30.14,SE,137,1.1,1.1,89,0.00,FEW,OVC,0.00,WeatherDisplay:10.37,2013-06-22 13:22:00,
2013-06-22 09:27:00,79.8,75.9,30.14,ESE,118,2.3,2.3,88,0.00,FEW,OVC,0.00,WeatherDisplay:10.37,2013-06-22 13:27:00,
2013-06-22 09:32:00,80.3,76.4,30.14,ESE,121,3.4,3.4,88,0.00,FEW,OVC,0.00,WeatherDisplay:10.37,2013-06-22 13:32:00,
2013-06-22 09:37:00,80.8,76.6,30.14,ESE,118,3.4,3.4,87,0.00,FEW,OVC,0.00,WeatherDisplay:10.37,2013-06-22 13:37:00,
2013-06-22 09:42:00,81.0,76.1,30.14,SE,135,5.8,5.8,85,0.00,FEW,OVC,0.00,WeatherDisplay:10.37,2013-06-22 13:42:00,
2013-06-22 09:47:00,81.2,76.6,30.14,South,169,2.3,2.3,86,0.00,FEW,OVC,0.00,WeatherDisplay:10.37,2013-06-22 13:47:00,
2013-06-22 09:52:00,81.6,76.6,30.14,SSW,199,3.4,3.4,85,0.00,FEW,OVC,0.00,WeatherDisplay:10.37,2013-06-22 13:52:00,
2013-06-22 09:57:00,81.7,76.7,30.14,South,176,2.0,2.0,85,0.00,FEW,OVC,0.00,WeatherDisplay:10.37,2013-06-22 13:57:00,
2013-06-22 10:02:00,81.7,76.4,30.14,ESE,122,4.6,4.6,84,0.00,FEW,OVC,0.00,WeatherDisplay:10.37,2013-06-22 14:02:00,
2013-06-22 10:07:00,81.5,76.2,30.14,SSW,204,3.4,3.4,84,0.00,FEW,OVC,0.00,WeatherDisplay:10.37,2013-06-22 14:07:00,
2013-06-22 10:12:00,81.2,75.9,30.14,South,176,4.6,4.6,84,0.00,FEW,OVC,0.00,WeatherDisplay:10.37,2013-06-22 14:12:00,
2013-06-22 10:17:00,81.4,76.5,30.14,East,90,3.0,3.0,85,0.00,FEW,OVC,0.00,WeatherDisplay:10.37,2013-06-22 14:17:00,
2013-06-22 10:22:00,81.4,75.7,30.14,SSE,167,3.4,3.4,83,0.00,FEW,OVC,0.00,WeatherDisplay:10.37,2013-06-22 14:22:00,
2013-06-22 10:27:00,81.4,76.1,30.14,South,175,3.4,3.4,84,0.00,FEW,OVC,0.00,WeatherDisplay:10.37,2013-06-22 14:27:00,
2013-06-22 10:32:00,81.5,76.2,30.14,SE,135,2.3,2.3,84,0.00,FEW,OVC,0.00,WeatherDisplay:10.37,2013-06-22 14:32:00,
2013-06-22 10:37:00,81.7,76.4,30.14,SSE,149,5.0,5.0,84,0.00,FEW,OVC,0.00,WeatherDisplay:10.37,2013-06-22 14:37:00,
2013-06-22 10:42:00,82.4,76.7,30.14,ESE,102,3.4,3.4,83,0.00,FEW,OVC,0.00,WeatherDisplay:10.37,2013-06-22 14:42:00,
2013-06-22 10:47:00,83.2,76.8,30.14,South,180,3.4,3.4,81,0.00,FEW,OVC,0.00,WeatherDisplay:10.37,2013-06-22 14:47:00,
2013-06-22 10:52:00,82.8,76.0,30.14,SSE,165,3.4,3.4,80,0.00,FEW,OVC,0.00,WeatherDisplay:10.37,2013-06-22 14:52:00,
2013-06-22 10:57:00,83.3,76.5,30.14,South,180,4.6,4.6,80,0.00,FEW,OVC,0.00,WeatherDisplay:10.37,2013-06-22 14:57:00,
2013-06-22 11:02:00,83.7,76.5,30.13,South,175,3.4,3.4,79,0.00,CLR,OVC,0.00,WeatherDisplay:10.37,2013-06-22 15:02:00,
2013-06-22 11:07:00,84.6,76.2,30.13,SSE,151,3.4,3.4,76,0.00,CLR,OVC,0.00,WeatherDisplay:10.37,2013-06-22 15:07:00,
2013-06-22 11:12:00,84.1,76.1,30.13,SE,124,3.0,3.0,77,0.00,CLR,OVC,0.00,WeatherDisplay:10.37,2013-06-22 15:12:00,
2013-06-22 11:17:00,84.4,76.4,30.13,SSE,158,8.1,8.1,77,0.00,CLR,OVC,0.00,WeatherDisplay:10.37,2013-06-22 15:17:00,
2013-06-22 11:22:00,84.7,76.7,30.13,SSE,164,3.4,3.4,77,0.00,CLR,OVC,0.00,WeatherDisplay:10.37,2013-06-22 15:22:00,
2013-06-22 11:27:00,85.3,76.5,30.13,SE,135,3.4,3.4,75,0.00,CLR,OVC,0.00,WeatherDisplay:10.37,2013-06-22 15:27:00,
2013-06-22 11:32:00,85.8,75.3,30.14,SSE,149,4.6,4.6,71,0.00,CLR,OVC,0.00,WeatherDisplay:10.37,2013-06-22 15:32:00,
2013-06-22 11:37:00,85.5,75.9,30.14,SSE,166,4.6,4.6,73,0.00,CLR,OVC,0.00,WeatherDisplay:10.37,2013-06-22 15:37:00,
2013-06-22 11:42:00,85.6,76.8,30.14,South,170,3.4,3.4,75,0.00,CLR,OVC,0.00,WeatherDisplay:10.37,2013-06-22 15:42:00,
2013-06-22 11:47:00,86.2,76.1,30.14,SE,128,4.6,4.6,72,0.00,CLR,OVC,0.00,WeatherDisplay:10.37,2013-06-22 15:47:00,
2013-06-22 11:52:00,86.7,77.0,30.14,ENE,76,5.8,5.8,73,0.00,CLR,OVC,0.00,WeatherDisplay:10.37,2013-06-22 15:52:00,
2013-06-22 11:57:00,86.7,76.6,30.14,South,189,4.6,4.6,72,0.00,CLR,OVC,0.00,WeatherDisplay:10.37,2013-06-22 15:57:00,
2013-06-22 12:02:00,87.0,76.9,30.13,SE,131,4.0,4.0,72,0.00,CLR,OVC,0.00,WeatherDisplay:10.37,2013-06-22 16:02:00,
2013-06-22 12:07:00,86.8,77.1,30.14,SSE,167,2.3,2.3,73,0.00,CLR,OVC,0.00,WeatherDisplay:10.37,2013-06-22 16:07:00,
2013-06-22 12:12:00,87.3,77.6,30.13,SE,129,3.4,3.4,73,0.00,CLR,OVC,0.00,WeatherDisplay:10.37,2013-06-22 16:12:00,
2013-06-22 12:17:00,87.3,76.3,30.13,ESE,123,3.4,3.4,70,0.00,CLR,OVC,0.00,WeatherDisplay:10.37,2013-06-22 16:17:00,
2013-06-22 12:22:00,86.2,76.5,30.14,South,171,1.1,1.1,73,0.00,CLR,OVC,0.00,WeatherDisplay:10.37,2013-06-22 16:22:00,
2013-06-22 12:27:00,85.2,75.6,30.14,South,189,2.3,2.3,73,0.00,CLR,OVC,0.00,WeatherDisplay:10.37,2013-06-22 16:27:00,
2013-06-22 12:32:00,84.7,76.7,30.14,South,174,1.1,1.1,77,0.00,CLR,OVC,0.00,WeatherDisplay:10.37,2013-06-22 16:32:00,
2013-06-22 12:37:00,84.3,75.9,30.13,SE,127,4.0,4.0,76,0.00,CLR,OVC,0.00,WeatherDisplay:10.37,2013-06-22 16:37:00,
2013-06-22 12:42:00,82.7,75.9,30.13,NE,52,2.3,2.3,80,0.12,RA,OVC,0.13,WeatherDisplay:10.37,2013-06-22 16:42:00,
2013-06-22 12:47:00,80.3,73.2,30.13,ESE,123,3.4,3.4,79,0.16,RA,OVC,0.16,WeatherDisplay:10.37,2013-06-22 16:47:00,
2013-06-22 12:52:00,79.0,73.7,30.14,NNW,347,3.4,3.4,84,0.16,RA,OVC,0.16,WeatherDisplay:10.37,2013-06-22 16:52:00,
2013-06-22 12:57:00,78.4,73.5,30.13,ESE,106,3.4,3.4,85,0.16,CLR,OVC,0.16,WeatherDisplay:10.37,2013-06-22 16:57:00,
2013-06-22 13:02:00,78.1,73.6,30.14,WNW,301,2.3,2.3,86,0.21,RA,OVC,0.23,WeatherDisplay:10.37,2013-06-22 17:02:00,
2013-06-22 13:07:00,77.9,73.4,30.13,NNE,31,3.4,3.4,86,0.37,RA,OVC,0.37,WeatherDisplay:10.37,2013-06-22 17:07:00,
2013-06-22 13:12:00,78.1,73.6,30.13,NNE,22,3.4,3.4,86,0.38,RA,OVC,0.38,WeatherDisplay:10.37,2013-06-22 17:12:00,
2013-06-22 13:17:00,78.7,74.2,30.13,NNE,14,3.4,3.4,86,0.38,RA,OVC,0.38,WeatherDisplay:10.37,2013-06-22 17:17:00,
2013-06-22 13:22:00,79.4,74.1,30.13,North,351,3.4,3.4,84,0.38,CLR,OVC,0.38,WeatherDisplay:10.37,2013-06-22 17:22:00,
2013-06-22 13:27:00,80.2,74.6,30.13,ENE,69,3.4,3.4,83,0.38,CLR,OVC,0.38,WeatherDisplay:10.37,2013-06-22 17:27:00,
2013-06-22 13:32:00,80.8,74.8,30.13,NNE,12,3.4,3.4,82,0.38,CLR,OVC,0.38,WeatherDisplay:10.37,2013-06-22 17:32:00,
2013-06-22 13:34:00,81.0,75.3,30.13,South,172,2.3,2.3,83,0.38,CLR,OVC,0.38,WeatherDisplay:10.37,2013-06-22 17:34:00,
2013-06-22 13:37:00,81.0,75.3,30.13,South,172,2.3,2.3,83,0.38,CLR,OVC,0.38,WeatherDisplay:10.37,2013-06-22 17:37:00,
2013-06-22 13:42:00,81.0,75.3,30.13,South,172,2.3,2.3,83,0.38,CLR,OVC,0.38,WeatherDisplay:10.37,2013-06-22 17:42:00,
2013-06-22 13:47:00,81.5,74.7,30.12,North,9,5.0,5.0,80,0.22,CLR,OVC,0.38,WeatherDisplay:10.37,2013-06-22 17:47:00,
2013-06-22 13:52:00,81.8,74.6,30.12,NNE,12,2.3,2.3,79,0.22,CLR,OVC,0.38,WeatherDisplay:10.37,2013-06-22 17:52:00,
2013-06-22 13:57:00,82.7,74.8,30.12,North,353,3.4,3.4,77,0.22,CLR,OVC,0.38,WeatherDisplay:10.37,2013-06-22 17:57:00,
2013-06-22 14:02:00,84.0,75.6,30.12,ESE,120,2.3,2.3,76,0.19,CLR,OVC,0.38,WeatherDisplay:10.37,2013-06-22 18:02:00,
2013-06-22 14:07:00,85.1,77.1,30.11,ENE,62,1.1,1.1,77,0.02,CLR,OVC,0.38,WeatherDisplay:10.37,2013-06-22 18:07:00,
2013-06-22 14:12:00,85.5,75.9,30.11,SE,127,1.0,1.0,73,0.00,CLR,OVC,0.38,WeatherDisplay:10.37,2013-06-22 18:12:00,
2013-06-22 14:17:00,85.3,76.1,30.11,SSW,196,1.1,0.0,74,0.00,CLR,OVC,0.38,WeatherDisplay:10.37,2013-06-22 18:17:00,
2013-06-22 14:22:00,86.1,75.6,30.11,East,83,2.3,2.3,71,0.00,CLR,OVC,0.38,WeatherDisplay:10.37,2013-06-22 18:22:00,
2013-06-22 14:27:00,86.6,76.5,30.11,WSW,253,1.1,1.1,72,0.00,CLR,OVC,0.38,WeatherDisplay:10.37,2013-06-22 18:27:00,
2013-06-22 14:32:00,87.2,77.5,30.11,WSW,250,0.0,0.0,73,0.00,CLR,OVC,0.38,WeatherDisplay:10.37,2013-06-22 18:32:00,
2013-06-22 14:37:00,87.7,75.8,30.11,ESE,104,3.4,3.4,68,0.00,CLR,OVC,0.38,WeatherDisplay:10.37,2013-06-22 18:37:00,
2013-06-22 14:42:00,87.0,75.6,30.10,SE,134,1.1,1.1,69,0.00,CLR,OVC,0.38,WeatherDisplay:10.37,2013-06-22 18:42:00,
2013-06-22 14:47:00,86.6,76.5,30.10,SSE,163,1.1,1.1,72,0.00,CLR,OVC,0.38,WeatherDisplay:10.37,2013-06-22 18:47:00,
2013-06-22 14:52:00,85.8,75.3,30.10,WSW,253,2.0,2.0,71,0.00,CLR,OVC,0.38,WeatherDisplay:10.37,2013-06-22 18:52:00,
2013-06-22 14:57:00,84.7,75.9,30.10,SSW,213,6.9,6.9,75,0.00,CLR,OVC,0.38,WeatherDisplay:10.37,2013-06-22 18:57:00,
2013-06-22 15:02:00,81.6,73.3,30.10,SW,215,9.2,9.2,76,0.01,RA,OVC,0.40,WeatherDisplay:10.37,2013-06-22 19:02:00,
2013-06-22 15:07:00,79.2,72.5,30.10,NW,315,4.0,4.0,80,0.05,RA,OVC,0.43,WeatherDisplay:10.37,2013-06-22 19:07:00,
2013-06-22 15:12:00,78.1,72.9,30.10,West,277,3.4,3.4,84,0.07,RA,OVC,0.46,WeatherDisplay:10.37,2013-06-22 19:12:00,
2013-06-22 15:17:00,78.2,73.0,30.10,SSW,213,1.1,1.1,84,0.08,RA,OVC,0.47,WeatherDisplay:10.37,2013-06-22 19:17:00,
2013-06-22 15:22:00,78.8,73.6,30.10,NNW,329,2.0,2.0,84,0.09,RA,OVC,0.47,WeatherDisplay:10.37,2013-06-22 19:22:00,
2013-06-22 15:27:00,79.4,73.4,30.10,NNW,347,1.1,1.1,82,0.09,RA,OVC,0.47,WeatherDisplay:10.37,2013-06-22 19:27:00,
2013-06-22 15:32:00,80.9,76.0,30.10,NNE,32,4.0,4.0,85,0.09,CLR,OVC,0.47,WeatherDisplay:10.37,2013-06-22 19:32:00,
2013-06-22 15:37:00,81.5,75.5,30.09,SE,128,4.6,4.6,82,0.09,CLR,OVC,0.47,WeatherDisplay:10.37,2013-06-22 19:37:00,
2013-06-22 15:42:00,81.9,75.1,30.10,SW,236,8.1,8.1,80,0.09,CLR,OVC,0.47,WeatherDisplay:10.37,2013-06-22 19:42:00,
2013-06-22 15:47:00,80.7,74.7,30.10,West,259,6.9,6.9,82,0.09,CLR,OVC,0.47,WeatherDisplay:10.37,2013-06-22 19:47:00,
2013-06-22 15:52:00,81.1,75.1,30.10,NE,36,5.8,5.8,82,0.09,CLR,OVC,0.47,WeatherDisplay:10.37,2013-06-22 19:52:00,
2013-06-22 15:57:00,81.9,74.7,30.11,SE,132,4.6,4.6,79,0.09,CLR,OVC,0.47,WeatherDisplay:10.37,2013-06-22 19:57:00,
2013-06-22 16:02:00,81.4,73.9,30.11,North,357,8.1,8.1,78,0.08,FEW,OVC,0.47,WeatherDisplay:10.37,2013-06-22 20:02:00,
2013-06-22 16:07:00,81.4,73.9,30.10,NNE,24,9.2,9.2,78,0.04,FEW,OVC,0.47,WeatherDisplay:10.37,2013-06-22 20:07:00,
2013-06-22 16:12:00,81.1,74.0,30.10,NNW,348,5.8,5.8,79,0.02,FEW,OVC,0.47,WeatherDisplay:10.37,2013-06-22 20:12:00,
2013-06-22 16:17:00,81.1,73.6,30.09,NW,320,5.8,5.8,78,0.01,FEW,OVC,0.47,WeatherDisplay:10.37,2013-06-22 20:17:00,
2013-06-22 16:22:00,81.0,73.9,30.09,SSE,147,3.4,3.4,79,0.00,FEW,OVC,0.47,WeatherDisplay:10.37,2013-06-22 20:22:00,
2013-06-22 16:27:00,80.9,73.4,30.09,ESE,117,5.8,5.8,78,0.00,FEW,OVC,0.47,WeatherDisplay:10.37,2013-06-22 20:27:00,
2013-06-22 16:32:00,80.6,73.5,30.10,NE,42,3.4,3.4,79,0.00,BKN,OVC,0.47,WeatherDisplay:10.37,2013-06-22 20:32:00,
2013-06-22 16:37:00,80.5,73.0,30.10,SE,133,3.4,3.4,78,0.00,BKN,OVC,0.47,WeatherDisplay:10.37,2013-06-22 20:37:00,
2013-06-22 16:42:00,80.0,73.3,30.10,SE,138,4.6,4.6,80,0.00,BKN,OVC,0.47,WeatherDisplay:10.37,2013-06-22 20:42:00,
2013-06-22 16:47:00,79.8,73.1,30.10,SE,132,5.8,5.8,80,0.00,BKN,OVC,0.47,WeatherDisplay:10.37,2013-06-22 20:47:00,
2013-06-22 16:52:00,79.5,73.2,30.09,ESE,102,4.6,4.6,81,0.00,BKN,OVC,0.47,WeatherDisplay:10.37,2013-06-22 20:52:00,
2013-06-22 16:57:00,78.8,73.6,30.09,East,87,3.4,3.4,84,0.00,BKN,OVC,0.47,WeatherDisplay:10.37,2013-06-22 20:57:00,
2013-06-22 17:02:00,78.4,73.9,30.09,NE,56,4.0,4.0,86,0.00,-RA,OVC,0.47,WeatherDisplay:10.37,2013-06-22 21:02:00,
2013-06-22 17:07:00,78.0,73.5,30.09,North,1,3.4,3.4,86,0.00,-RA,OVC,0.47,WeatherDisplay:10.37,2013-06-22 21:07:00,
2013-06-22 17:12:00,77.9,73.4,30.09,ENE,68,2.3,2.3,86,0.00,-RA,OVC,0.47,WeatherDisplay:10.37,2013-06-22 21:12:00,
2013-06-22 17:17:00,78.0,73.1,30.09,NNE,18,3.4,3.4,85,0.00,-RA,OVC,0.47,WeatherDisplay:10.37,2013-06-22 21:17:00,
2013-06-22 17:22:00,78.3,73.1,30.09,NNE,18,3.4,3.4,84,0.00,-RA,OVC,0.47,WeatherDisplay:10.37,2013-06-22 21:22:00,
2013-06-22 17:27:00,78.6,73.4,30.09,NNE,19,2.3,2.3,84,0.00,-RA,OVC,0.47,WeatherDisplay:10.37,2013-06-22 21:27:00,
2013-06-22 17:32:00,78.8,73.2,30.09,NNE,15,2.3,2.3,83,0.00,-RA,OVC,0.47,WeatherDisplay:10.37,2013-06-22 21:32:00,
2013-06-22 17:37:00,79.0,72.7,30.09,ENE,72,3.4,3.4,81,0.00,-RA,OVC,0.47,WeatherDisplay:10.37,2013-06-22 21:37:00,
2013-06-22 17:42:00,79.1,72.8,30.08,NNE,24,3.4,3.4,81,0.00,-RA,OVC,0.47,WeatherDisplay:10.37,2013-06-22 21:42:00,
2013-06-22 17:47:00,79.0,73.0,30.08,NE,42,1.1,1.1,82,0.00,-RA,OVC,0.47,WeatherDisplay:10.37,2013-06-22 21:47:00,
2013-06-22 17:52:00,78.8,72.8,30.08,NNE,17,3.4,3.4,82,0.00,-RA,OVC,0.47,WeatherDisplay:10.37,2013-06-22 21:52:00,
2013-06-22 17:57:00,78.5,72.5,30.08,NE,52,3.4,3.4,82,0.00,-RA,OVC,0.47,WeatherDisplay:10.37,2013-06-22 21:57:00,
2013-06-22 18:02:00,78.2,72.3,30.08,NNE,12,3.4,3.4,82,0.00,-RA,OVC,0.47,WeatherDisplay:10.37,2013-06-22 22:02:00,
2013-06-22 18:07:00,78.0,72.4,30.08,NE,52,3.4,3.4,83,0.00,-RA,OVC,0.47,WeatherDisplay:10.37,2013-06-22 22:07:00,
2013-06-22 18:12:00,77.9,72.7,30.08,North,351,3.4,3.4,84,0.00,-RA,OVC,0.47,WeatherDisplay:10.37,2013-06-22 22:12:00,
2013-06-22 18:17:00,77.9,73.0,30.08,NNE,23,3.4,3.4,85,0.00,-RA,OVC,0.47,WeatherDisplay:10.37,2013-06-22 22:17:00,
2013-06-22 18:22:00,77.6,72.7,30.08,NNE,26,3.4,3.4,85,0.00,-RA,OVC,0.47,WeatherDisplay:10.37,2013-06-22 22:22:00,
2013-06-22 18:27:00,77.3,72.4,30.08,North,1,3.4,3.4,85,0.00,-RA,OVC,0.47,WeatherDisplay:10.37,2013-06-22 22:27:00,
2013-06-22 18:32:00,77.1,71.9,30.08,North,355,3.4,3.4,84,0.00,CLR,OVC,0.47,WeatherDisplay:10.37,2013-06-22 22:32:00,
2013-06-22 18:37:00,77.0,72.1,30.08,North,357,1.1,1.1,85,0.00,CLR,OVC,0.47,WeatherDisplay:10.37,2013-06-22 22:37:00,
2013-06-22 18:42:00,76.9,72.0,30.08,North,11,3.4,3.4,85,0.00,CLR,OVC,0.47,WeatherDisplay:10.37,2013-06-22 22:42:00,
2013-06-22 18:47:00,76.7,72.2,30.09,NNW,329,2.3,2.3,86,0.00,CLR,OVC,0.47,WeatherDisplay:10.37,2013-06-22 22:47:00,
2013-06-22 18:52:00,76.5,72.0,30.08,SW,227,1.1,1.1,86,0.00,CLR,OVC,0.47,WeatherDisplay:10.37,2013-06-22 22:52:00,
2013-06-22 18:57:00,76.5,72.0,30.08,WNW,290,1.1,1.1,86,0.00,CLR,OVC,0.47,WeatherDisplay:10.37,2013-06-22 22:57:00,
2013-06-22 19:02:00,76.6,72.1,30.08,NW,312,1.1,1.1,86,0.00,CLR,OVC,0.47,WeatherDisplay:10.37,2013-06-22 23:02:00,
2013-06-22 19:07:00,76.7,72.2,30.08,West,265,2.3,2.3,86,0.00,CLR,OVC,0.47,WeatherDisplay:10.37,2013-06-22 23:07:00,
2013-06-22 19:12:00,76.8,71.9,30.08,NNE,15,1.1,1.1,85,0.00,CLR,OVC,0.47,WeatherDisplay:10.37,2013-06-22 23:12:00,
2013-06-22 19:17:00,77.0,72.1,30.08,NNE,14,1.0,1.0,85,0.00,CLR,OVC,0.47,WeatherDisplay:10.37,2013-06-22 23:17:00,
2013-06-22 19:22:00,77.0,72.1,30.08,WSW,243,2.0,2.0,85,0.00,CLR,OVC,0.47,WeatherDisplay:10.37,2013-06-22 23:22:00,
2013-06-22 19:27:00,77.2,72.3,30.09,West,278,2.0,2.0,85,0.00,CLR,OVC,0.47,WeatherDisplay:10.37,2013-06-22 23:27:00,
2013-06-22 19:32:00,77.1,72.2,30.09,NNW,331,4.0,4.0,85,0.00,CLR,OVC,0.47,WeatherDisplay:10.37,2013-06-22 23:32:00,
2013-06-22 19:37:00,77.2,72.3,30.09,NNW,341,2.3,2.3,85,0.00,CLR,OVC,0.47,WeatherDisplay:10.37,2013-06-22 23:37:00,
2013-06-22 19:42:00,77.1,72.2,30.09,NNW,333,2.3,2.3,85,0.00,CLR,OVC,0.47,WeatherDisplay:10.37,2013-06-22 23:42:00,
2013-06-22 19:47:00,77.0,72.1,30.09,WSW,243,0.0,0.0,85,0.00,CLR,OVC,0.47,WeatherDisplay:10.37,2013-06-22 23:47:00,
2013-06-22 19:52:00,77.0,72.5,30.10,NW,322,1.1,1.1,86,0.00,CLR,OVC,0.47,WeatherDisplay:10.37,2013-06-22 23:52:00,
2013-06-22 19:57:00,77.0,72.5,30.10,WNW,289,0.0,0.2,86,0.00,CLR,OVC,0.47,WeatherDisplay:10.37,2013-06-22 23:57:00,
2013-06-22 20:02:00,77.0,72.5,30.09,WNW,288,1.1,0.0,86,0.00,-RA,OVC,0.47,WeatherDisplay:10.37,2013-06-23 00:02:00,
2013-06-22 20:07:00,76.9,72.4,30.09,North,351,2.3,2.3,86,0.00,-RA,OVC,0.47,WeatherDisplay:10.37,2013-06-23 00:07:00,
2013-06-22 20:12:00,76.9,72.4,30.09,North,2,2.3,2.3,86,0.00,-RA,OVC,0.47,WeatherDisplay:10.37,2013-06-23 00:12:00,
2013-06-22 20:17:00,76.9,72.4,30.09,NNE,21,3.0,3.0,86,0.00,-RA,OVC,0.47,WeatherDisplay:10.37,2013-06-23 00:17:00,
2013-06-22 20:22:00,76.9,72.4,30.09,North,360,3.4,3.4,86,0.00,-RA,OVC,0.47,WeatherDisplay:10.37,2013-06-23 00:22:00,
2013-06-22 20:27:00,76.9,72.7,30.10,NNE,24,2.3,2.3,87,0.00,-RA,OVC,0.47,WeatherDisplay:10.37,2013-06-23 00:27:00,
2013-06-22 20:29:00,76.9,72.7,30.10,NNE,21,1.1,1.1,87,0.00,-RA,OVC,0.47,WeatherDisplay:10.37,2013-06-23 00:29:00,
2013-06-22 20:32:00,76.9,72.7,30.10,NNE,21,1.1,1.1,87,0.00,-RA,OVC,0.47,WeatherDisplay:10.37,2013-06-23 00:32:00,
2013-06-22 20:37:00,76.9,72.7,30.10,NNE,21,1.1,1.1,87,0.00,-RA,OVC,0.47,WeatherDisplay:10.37,2013-06-23 00:37:00,
2013-06-22 20:43:00,76.8,72.6,30.09,North,11,3.4,3.4,87,0.00,RA,OVC,0.47,WeatherDisplay:10.37,2013-06-23 00:43:00,
2013-06-22 20:48:00,76.8,72.6,30.09,NNE,14,2.3,2.3,87,0.00,-RA,OVC,0.47,WeatherDisplay:10.37,2013-06-23 00:48:00,
2013-06-22 20:53:00,76.7,72.9,30.09,NNE,29,2.3,2.3,88,0.00,-RA,OVC,0.47,WeatherDisplay:10.37,2013-06-23 00:53:00,
2013-06-22 20:58:00,76.6,72.8,30.09,North,4,2.3,2.3,88,0.00,-RA,OVC,0.47,WeatherDisplay:10.37,2013-06-23 00:58:00,
2013-06-22 21:03:00,76.6,72.8,30.09,NE,52,1.1,1.1,88,0.00,-RA,OVC,0.47,WeatherDisplay:10.37,2013-06-23 01:03:00,
2013-06-22 21:08:00,76.6,72.8,30.09,ESE,112,1.1,1.1,88,0.00,-RA,OVC,0.47,WeatherDisplay:10.37,2013-06-23 01:08:00,
2013-06-22 21:13:00,76.6,73.1,30.10,NE,38,1.1,1.1,89,0.00,-RA,OVC,0.47,WeatherDisplay:10.37,2013-06-23 01:13:00,
2013-06-22 21:18:00,76.5,73.0,30.10,ENE,62,0.0,0.0,89,0.00,-RA,OVC,0.47,WeatherDisplay:10.37,2013-06-23 01:18:00,
2013-06-22 21:23:00,76.5,73.0,30.10,ENE,61,1.1,0.0,89,0.00,-RA,OVC,0.47,WeatherDisplay:10.37,2013-06-23 01:23:00,
2013-06-22 21:28:00,76.5,73.0,30.10,NE,56,1.1,1.1,89,0.00,-RA,OVC,0.47,WeatherDisplay:10.37,2013-06-23 01:28:00,
2013-06-22 21:33:00,76.6,73.1,30.11,NNE,24,0.0,0.0,89,0.00,-RA,OVC,0.47,WeatherDisplay:10.37,2013-06-23 01:33:00,
2013-06-22 21:38:00,76.6,73.1,30.10,NNE,23,1.0,1.0,89,0.00,-RA,OVC,0.47,WeatherDisplay:10.37,2013-06-23 01:38:00,
2013-06-22 21:43:00,76.6,73.1,30.10,North,353,1.1,1.1,89,0.00,-RA,OVC,0.47,WeatherDisplay:10.37,2013-06-23 01:43:00,
2013-06-22 21:48:00,76.6,73.1,30.11,SE,133,1.1,1.1,89,0.00,-RA,OVC,0.47,WeatherDisplay:10.37,2013-06-23 01:48:00,
2013-06-22 21:53:00,76.5,73.0,30.11,North,11,2.3,2.3,89,0.00,-RA,OVC,0.47,WeatherDisplay:10.37,2013-06-23 01:53:00,
2013-06-22 21:58:00,76.5,73.0,30.11,NNE,27,2.0,2.0,89,0.00,-RA,OVC,0.47,WeatherDisplay:10.37,2013-06-23 01:58:00,
2013-06-22 22:03:00,76.5,73.0,30.12,NNE,24,0.0,0.0,89,0.00,CLR,OVC,0.47,WeatherDisplay:10.37,2013-06-23 02:03:00,
2013-06-22 22:08:00,76.5,73.0,30.12,NE,52,0.0,0.0,89,0.00,CLR,OVC,0.47,WeatherDisplay:10.37,2013-06-23 02:08:00,
2013-06-22 22:13:00,76.6,73.1,30.12,NE,38,0.0,0.2,89,0.00,CLR,OVC,0.47,WeatherDisplay:10.37,2013-06-23 02:13:00,
2013-06-22 22:18:00,76.6,73.1,30.12,NE,47,0.0,0.0,89,0.00,CLR,OVC,0.47,WeatherDisplay:10.37,2013-06-23 02:18:00,
2013-06-22 22:23:00,76.7,73.2,30.12,NNW,331,0.0,0.0,89,0.00,CLR,OVC,0.47,WeatherDisplay:10.37,2013-06-23 02:23:00,
2013-06-22 22:28:00,76.7,73.2,30.12,East,85,1.1,1.1,89,0.00,CLR,OVC,0.47,WeatherDisplay:10.37,2013-06-23 02:28:00,
2013-06-22 22:33:00,76.6,73.1,30.12,East,85,0.0,0.0,89,0.00,CLR,OVC,0.47,WeatherDisplay:10.37,2013-06-23 02:33:00,
2013-06-22 22:38:00,76.6,73.1,30.12,East,85,0.0,0.0,89,0.00,CLR,OVC,0.47,WeatherDisplay:10.37,2013-06-23 02:38:00,
2013-06-22 22:43:00,76.5,73.0,30.12,East,85,0.0,0.0,89,0.00,CLR,OVC,0.47,WeatherDisplay:10.37,2013-06-23 02:43:00,
2013-06-22 22:48:00,76.5,73.0,30.12,East,85,0.0,0.0,89,0.00,CLR,OVC,0.47,WeatherDisplay:10.37,2013-06-23 02:48:00,
2013-06-22 22:53:00,76.4,72.9,30.11,East,85,0.0,0.0,89,0.00,CLR,OVC,0.47,WeatherDisplay:10.37,2013-06-23 02:53:00,
2013-06-22 22:58:00,76.3,72.8,30.11,East,85,0.0,0.0,89,0.00,CLR,OVC,0.47,WeatherDisplay:10.37,2013-06-23 02:58:00,
2013-06-22 23:03:00,76.2,72.7,30.12,East,85,1.1,1.1,89,0.00,CLR,OVC,0.47,WeatherDisplay:10.37,2013-06-23 03:03:00,
2013-06-22 23:08:00,76.1,72.6,30.11,East,87,1.1,1.1,89,0.00,CLR,OVC,0.47,WeatherDisplay:10.37,2013-06-23 03:08:00,
2013-06-22 23:13:00,76.1,72.6,30.11,SE,135,2.0,2.0,89,0.00,CLR,OVC,0.47,WeatherDisplay:10.37,2013-06-23 03:13:00,
2013-06-22 23:18:00,75.9,72.4,30.12,East,96,1.0,0.0,89,0.00,CLR,OVC,0.47,WeatherDisplay:10.37,2013-06-23 03:18:00,
2013-06-22 23:23:00,75.9,72.4,30.12,ESE,113,1.1,1.1,89,0.00,CLR,OVC,0.47,WeatherDisplay:10.37,2013-06-23 03:23:00,
2013-06-22 23:28:00,75.8,72.3,30.12,ESE,120,1.1,1.1,89,0.00,CLR,OVC,0.47,WeatherDisplay:10.37,2013-06-23 03:28:00,
2013-06-22 23:33:00,75.7,72.2,30.12,ESE,113,1.1,1.1,89,0.00,CLR,OVC,0.47,WeatherDisplay:10.37,2013-06-23 03:33:00,
2013-06-22 23:38:00,75.6,72.1,30.12,SE,137,1.1,1.1,89,0.00,CLR,OVC,0.47,WeatherDisplay:10.37,2013-06-23 03:38:00,
2013-06-22 23:43:00,75.5,72.4,30.12,SE,137,1.1,1.1,90,0.00,CLR,OVC,0.47,WeatherDisplay:10.37,2013-06-23 03:43:00,
2013-06-22 23:48:00,75.4,72.3,30.12,SE,128,1.1,1.1,90,0.00,CLR,OVC,0.47,WeatherDisplay:10.37,2013-06-23 03:48:00,
2013-06-22 23:53:00,75.3,72.2,30.12,SSE,149,2.3,2.3,90,0.00,CLR,OVC,0.47,WeatherDisplay:10.37,2013-06-23 03:53:00,
2013-06-22 23:58:00,75.1,72.0,30.12,East,92,1.1,1.1,90,0.00,CLR,OVC,0.47,WeatherDisplay:10.37,2013-06-23 03:58:00,